This is the latest recevied weather packets stored in our database for station/object VK4RM-13. If no packets are shown the sender has not sent any weather packets the latest 1 day(s).
| Time | Temp. | Humidity | Pressure | Rain* | Wind** | Luminosity | Snow |
|---|---|---|---|---|---|---|---|
| 1778079395 | 18.89° C | 94% | 994.9 hPa | 0 mm | - | - | - |
| 1778078795 | 18.89° C | 94% | 995 hPa | 0 mm | - | - | - |
| 1778078195 | 18.89° C | 94% | 995 hPa | 0 mm | - | - | - |
| 1778077595 | 18.89° C | 94% | 995 hPa | 0 mm | - | - | - |
| 1778076995 | 19.44° C | 94% | 995.1 hPa | 0 mm | - | - | - |
| 1778076395 | 19.44° C | 94% | 995.1 hPa | 0 mm | - | - | - |
| 1778075195 | 19.44° C | 94% | 995.4 hPa | 0 mm | - | - | - |
| 1778073995 | 19.44° C | 94% | 995.4 hPa | 0 mm | - | - | - |
| 1778072195 | 19.44° C | 94% | 995.6 hPa | 0 mm | - | - | - |
| 1778057196 | 20.56° C | 93% | 994.6 hPa | 0 mm | - | - | - |
| 1778051196 | 21.67° C | 92% | 993.8 hPa | 0 mm | - | - | - |
| 1778050596 | 21.67° C | 92% | 993.8 hPa | 0 mm | - | - | - |
| 1778049996 | 22.22° C | 91% | 993.7 hPa | 0 mm | - | - | - |
| 1778049396 | 22.22° C | 91% | 993.6 hPa | 0.76 mm | - | - | - |
| 1778048796 | 22.22° C | 90% | 993.5 hPa | 0.76 mm | - | - | - |
| 1778048196 | 22.78° C | 89% | 993.5 hPa | 0.76 mm | - | - | - |
| 1778047596 | 22.78° C | 87% | 993.5 hPa | 0.76 mm | - | - | - |
| 1778046996 | 23.33° C | 85% | 993.5 hPa | 0.76 mm | - | - | - |
| 1778046396 | 24.44° C | 79% | 993.4 hPa | 0.76 mm | - | - | - |
| 1778045796 | 25.56° C | 75% | 993.3 hPa | 0 mm | - | - | - |
| 1778045196 | 26.11° C | 72% | 993.2 hPa | 0 mm | - | - | - |
| 1778044596 | 26.11° C | 74% | 993.3 hPa | 0 mm | - | - | - |
| 1778043996 | 26.11° C | 72% | 993.3 hPa | 0 mm | - | - | - |
| 1778043396 | 26.11° C | 73% | 993.3 hPa | 0 mm | - | - | - |
| 1778042796 | 25.56° C | 75% | 993.3 hPa | 0 mm | - | - | - |
* Rain latest hour (hover to see other rain measurements)
** Current wind speed in m/s (hover to see current wind gust speed)